Zurück zum Katalog

STARLINK-5472

AktivKommunikationVLEO
NORAD 54767·PAYLOAD·🇺🇸 United States

Gestartet Dec 17, 2022 von Cape Canaveral Space Force Station

Loading…

Nächste Überflüge (nächste 24 Stunden)

TLE

AktuellSource: CelesTrak SupGP

Epoche: Sep 15, 2026, 02:33 UTC

1 54767C 22175K   26258.10673611 -.00011034  00000+0 -69188-3 0  2587
2 54767  53.1585 273.1182 0001168  87.7457 328.3887 15.08844305    14

Verfolge STARLINK-5472 in Echtzeit mit AllMySat

Download on the App Store